Location: New Plymouth
(39.0670°S, 174.0830°E)
Time: 01:10:35
(UTC+12:00)

Cosmos 1933 - Pass Details

Date: 24 January 2019
Orbit: 547 x 564 km, 82.5° (Epoch: 21 April)

Event Time Altitude Azimuth Distance (km) Brightness Sun altitude
Exits shadow 22:59:55 31° 327° (NNW) 1,003 4.4 -21.3°
Maximum altitude 23:01:40 58° 261° (W) 671 3.9 -21.5°
Drops below altitude 10° 23:05:47 10° 181° (S) 1,893 6.8 -22.0°
Sets 23:08:02 0° 176° (S) 2,800 7.7 -22.2°
